Charles City, IA

10:52 AM CDT on May 25, 2017 (GMT -0500)
Charles City Municipal

Weather History for KCCY - May, 2014

Change the Weather History Date:

Thursday, May 8, 2014

  Actual Average Record
Temperature  
Mean Temperature 68 °F -  
Max Temperature 77 °F 68 °F 87 °F (1963)
Min Temperature 60 °F 45 °F 32 °F (1983)
Cooling Degree Days 4    
Growing Degree Days 18 (Base 50)    
Moisture  
Dew Point 60 °F    
Average Humidity 70    
Maximum Humidity 88    
Minimum Humidity 56    
Precipitation  
Precipitation 0.91 in - - ()
Sea Level Pressure  
Sea Level Pressure 29.67 in    
Wind  
Wind Speed 12 mph (South)    
Max Wind Speed 28 mph    
Max Gust Speed 39 mph    
Visibility 10 miles    
Events Rain    
Averages and records for this station are not official NWS values.
T = Trace of Precipitation, MM = Missing Value Source: NWS Daily Summary

Daily Weather History Graph

Daily Weather History Graph

Search for Another Location

Airport or City:

Trip Planner

Search our weather history database for the weather conditions in past years. The results will help you decide how hot, cold, wet, or windy it might be!

Date:

Astronomy

May. 08, 2014 Rise Set
Actual Time 5:54 AM CDT 8:19 PM CDT
Civil Twilight 5:23 AM CDT 8:51 PM CDT
Nautical Twilight 4:43 AM CDT 9:31 PM CDT
Astronomical Twilight 3:59 AM CDT 10:15 PM CDT
Moon 2:11 PM CDT (5/8) 2:36 AM CDT (5/8)
Length of Visible Light 15h 28m
Length of Day
14h 24m
Waxing Gibbous, 65% of the Moon is Illuminated
May 8
Waxing Gibbous
May 14
Full
May 21
Last Quarter
May 28
New
Jun 5
First Quarter

Hourly Weather History & Observations

Time (CDT) Temp. Dew Point Humidity Pressure Visibility Wind Dir Wind Speed Gust Speed Precip Events Conditions
12:15 AM 66.2 °F 57.2 °F 73% 29.68 in 10.0 mi ESE 11.5 mph - N/A   Scattered Clouds
12:35 AM 66.2 °F 57.2 °F 73% 29.67 in 10.0 mi SE 12.7 mph - N/A   Scattered Clouds
12:55 AM 66.2 °F 57.2 °F 73% 29.66 in 10.0 mi SE 12.7 mph - N/A   Clear
1:15 AM 68.0 °F 59.0 °F 73% 29.66 in 10.0 mi SE 10.4 mph - N/A   Clear
1:35 AM 68.0 °F 59.0 °F 73% 29.66 in 10.0 mi SSE 12.7 mph - N/A   Clear
1:55 AM 68.0 °F 59.0 °F 73% 29.66 in 10.0 mi South 10.4 mph - N/A   Clear
2:15 AM 68.0 °F 59.0 °F 73% 29.64 in 10.0 mi South 8.1 mph - N/A   Clear
2:35 AM 68.0 °F 59.0 °F 73% 29.63 in 10.0 mi SE 10.4 mph - N/A   Clear
2:55 AM 68.0 °F 59.0 °F 73% 29.63 in 10.0 mi SSE 11.5 mph - N/A   Scattered Clouds
3:15 AM 68.0 °F 60.8 °F 78% 29.66 in 10.0 mi South 15.0 mph - N/A   Mostly Cloudy
3:35 AM 68.0 °F 59.0 °F 73% 29.70 in 10.0 mi SW 11.5 mph - N/A   Partly Cloudy
3:55 AM 68.0 °F 57.2 °F 68% 29.69 in 10.0 mi WSW 12.7 mph 18.4 mph N/A   Clear
4:15 AM 69.8 °F 53.6 °F 56% 29.67 in 10.0 mi WSW 11.5 mph 19.6 mph N/A   Scattered Clouds
4:35 AM 68.0 °F 53.6 °F 60% 29.67 in 10.0 mi SSW 8.1 mph - N/A   Mostly Cloudy
4:55 AM 64.4 °F 53.6 °F 68% 29.66 in 10.0 mi SE 6.9 mph - N/A   Mostly Cloudy
5:15 AM 64.4 °F 53.6 °F 68% 29.68 in 10.0 mi South 8.1 mph - N/A   Scattered Clouds
5:35 AM 64.4 °F 55.4 °F 73% 29.66 in 10.0 mi SE 10.4 mph - N/A   Scattered Clouds
5:55 AM 64.4 °F 55.4 °F 73% 29.68 in 10.0 mi South 8.1 mph - N/A   Mostly Cloudy
6:15 AM 62.6 °F 55.4 °F 77% 29.69 in 10.0 mi South 8.1 mph - N/A   Mostly Cloudy
6:35 AM 64.4 °F 53.6 °F 68% 29.70 in 10.0 mi South 10.4 mph - N/A   Mostly Cloudy
6:55 AM 64.4 °F 55.4 °F 73% 29.71 in 10.0 mi South 6.9 mph - N/A   Overcast
7:15 AM 64.4 °F 55.4 °F 73% 29.73 in 10.0 mi SW 4.6 mph - N/A   Mostly Cloudy
7:35 AM 64.4 °F 57.2 °F 77% 29.73 in 10.0 mi Calm Calm - N/A   Overcast
7:55 AM 66.2 °F 57.2 °F 73% 29.73 in 10.0 mi Calm Calm - N/A   Mostly Cloudy
8:15 AM 66.2 °F 57.2 °F 73% 29.73 in 10.0 mi Calm Calm - N/A   Partly Cloudy
8:35 AM 68.0 °F 57.2 °F 68% 29.74 in 10.0 mi NW 5.8 mph 13.8 mph N/A   Partly Cloudy
8:55 AM 69.8 °F 57.2 °F 64% 29.74 in 10.0 mi Calm Calm - N/A   Partly Cloudy
9:15 AM 69.8 °F 55.4 °F 60% 29.73 in 10.0 mi Calm Calm - N/A   Clear
9:35 AM 69.8 °F 57.2 °F 64% 29.72 in 10.0 mi NE 4.6 mph - N/A   Clear
9:55 AM 69.8 °F 57.2 °F 64% 29.72 in 10.0 mi Calm Calm - N/A   Clear
10:15 AM 71.6 °F 59.0 °F 64% 29.72 in 10.0 mi SE 4.6 mph - N/A   Partly Cloudy
10:35 AM 71.6 °F 59.0 °F 64% 29.72 in 10.0 mi Variable 3.5 mph - N/A   Partly Cloudy
10:55 AM 71.6 °F 60.8 °F 69% 29.72 in 10.0 mi South 8.1 mph - N/A   Mostly Cloudy
11:15 AM 73.4 °F 60.8 °F 65% 29.72 in 10.0 mi SSE 5.8 mph - N/A   Overcast
11:35 AM 73.4 °F 62.6 °F 69% 29.72 in 10.0 mi Variable 4.6 mph - N/A   Overcast
11:55 AM 75.2 °F 62.6 °F 65% 29.71 in 10.0 mi South 15.0 mph 20.7 mph N/A   Mostly Cloudy
12:15 PM 77.0 °F 62.6 °F 61% 29.70 in 10.0 mi South 17.3 mph - N/A   Scattered Clouds
12:35 PM 77.0 °F 62.6 °F 61% 29.69 in 10.0 mi South 23.0 mph - N/A   Mostly Cloudy
12:55 PM 77.0 °F 62.6 °F 61% 29.69 in 10.0 mi South 19.6 mph - N/A   Mostly Cloudy
1:15 PM 77.0 °F 62.6 °F 61% 29.69 in 10.0 mi South 18.4 mph - N/A   Mostly Cloudy
1:35 PM 77.0 °F 62.6 °F 61% 29.68 in 9.0 mi South 24.2 mph - N/A   Mostly Cloudy
1:55 PM 73.4 °F 64.4 °F 73% 29.67 in - South 23.0 mph 31.1 mph N/A   Scattered Clouds
2:15 PM 73.4 °F 64.4 °F 73% 29.67 in 10.0 mi South 23.0 mph - N/A   Partly Cloudy
2:35 PM 77.0 °F 64.4 °F 65% 29.66 in 10.0 mi South 26.5 mph - N/A   Partly Cloudy
2:55 PM 75.2 °F 64.4 °F 69% 29.66 in 10.0 mi South 24.2 mph 34.5 mph N/A   Scattered Clouds
3:15 PM 77.0 °F 62.6 °F 61% 29.65 in 9.0 mi South 27.6 mph 39.1 mph N/A   Mostly Cloudy
3:35 PM 77.0 °F 62.6 °F 61% 29.63 in 10.0 mi South 19.6 mph 31.1 mph N/A   Scattered Clouds
3:55 PM 77.0 °F 60.8 °F 57% 29.62 in 10.0 mi South 19.6 mph 26.5 mph N/A   Partly Cloudy
4:15 PM 77.0 °F 62.6 °F 61% 29.62 in 10.0 mi South 17.3 mph 24.2 mph N/A   Partly Cloudy
4:35 PM 75.2 °F 60.8 °F 61% 29.63 in 10.0 mi South 20.7 mph - N/A   Mostly Cloudy
4:55 PM 75.2 °F 60.8 °F 61% 29.64 in 10.0 mi South 18.4 mph - N/A   Mostly Cloudy
5:15 PM 75.2 °F 62.6 °F 65% 29.64 in 9.0 mi South 21.9 mph 31.1 mph N/A   Mostly Cloudy
5:35 PM 73.4 °F 62.6 °F 69% 29.64 in 9.0 mi South 21.9 mph 31.1 mph N/A   Scattered Clouds
5:55 PM 73.4 °F 62.6 °F 69% 29.64 in 10.0 mi South 18.4 mph 28.8 mph N/A   Mostly Cloudy
6:15 PM 75.2 °F 62.6 °F 65% 29.63 in 10.0 mi South 23.0 mph 29.9 mph N/A   Mostly Cloudy
6:35 PM 75.2 °F 62.6 °F 65% 29.63 in 10.0 mi South 23.0 mph 31.1 mph N/A   Mostly Cloudy
6:55 PM 75.2 °F 62.6 °F 65% 29.62 in 10.0 mi South 21.9 mph 28.8 mph N/A   Scattered Clouds
7:15 PM 75.2 °F 60.8 °F 61% 29.61 in 10.0 mi South 24.2 mph 29.9 mph N/A   Scattered Clouds
7:55 PM 71.6 °F 62.6 °F 73% 29.63 in 8.0 mi South 19.6 mph - 0.01 in   Mostly Cloudy
8:15 PM 71.6 °F 62.6 °F 73% 29.61 in 10.0 mi SSE 16.1 mph 24.2 mph N/A   Mostly Cloudy
8:35 PM 64.4 °F 57.2 °F 77% 29.67 in 5.0 mi West 27.6 mph 33.4 mph N/A Rain Light Rain
8:55 PM 60.8 °F 57.2 °F 88% 29.66 in 2.0 mi SSW 11.5 mph 19.6 mph 0.52 in Rain Rain
9:15 PM 60.8 °F 57.2 °F 88% 29.63 in 2.0 mi South 15.0 mph 26.5 mph N/A Rain Heavy Rain
9:35 PM 62.6 °F 59.0 °F 88% 29.65 in 2.0 mi South 16.1 mph 25.3 mph N/A Rain Light Rain
9:55 PM 64.4 °F 59.0 °F 83% 29.62 in 10.0 mi South 10.4 mph - 0.38 in   Mostly Cloudy
10:15 PM 66.2 °F 60.8 °F 83% 29.62 in 10.0 mi South 11.5 mph - N/A   Scattered Clouds
10:35 PM 64.4 °F 60.8 °F 88% 29.62 in 10.0 mi South 13.8 mph 20.7 mph N/A   Mostly Cloudy
10:55 PM 66.2 °F 62.6 °F 88% 29.62 in 10.0 mi South 16.1 mph - N/A   Scattered Clouds
11:15 PM 68.0 °F 62.6 °F 83% 29.61 in 10.0 mi South 17.3 mph 25.3 mph N/A   Mostly Cloudy
11:35 PM 68.0 °F 60.8 °F 78% 29.62 in 10.0 mi SSW 17.3 mph - N/A   Mostly Cloudy
11:55 PM 64.4 °F 59.0 °F 83% 29.64 in 10.0 mi WSW 19.6 mph - N/A   Overcast